Location: Clanezzo
(45.7500°N, 9.6000°E)
Time: 07:56:31
(UTC+00:00)

Cosmos 773 Rocket - Pass Details

Date: 01 October 2021
Orbit: 745 x 777 km, 74.1° (Epoch: 15 October)

Event Time Altitude Azimuth Distance (km) Brightness Sun altitude
Rises 18:11:56 0° 328° (NNW) 3,253 7.9 -13.1°
Reaches altitude 10° 18:14:35 10° 318° (NW) 2,326 7.3 -13.5°
Maximum altitude 18:19:01 28° 260° (W) 1,423 6.2 -14.3°
Drops below altitude 10° 18:23:28 10° 203° (SSW) 2,320 6.6 -15.1°
Sets 18:26:07 0° 192° (SSW) 3,244 7.3 -15.5°
